Starlink 30876

operational
NORAD ID: 58404 Int'l Des: 2023-180 Owner: SPXS Country: US Constellation: starlink
LEOCIRCULAR

Starlink 30876について

説明を読み込み中...

リアルタイム位置

3D地球を読み込み中...

次回通過

高度履歴

Altitude vs Time

uPlot chart will show altitude changes over time

軌道要素

1 58404U 23180C 25352.14182158 -.00000643 00000-0 -32552-4 0 9998
2 58404 43.0029 139.5264 0001379 266.8391 93.2293 15.02530899115317
Epoch: Dec 18, 2025 • Age: 16 hours

現在のステータス

高度 565.2 km
速度 7.58 km/s
衛星直下点 -26.46°S, 88.56°E
打ち上げ日 Nov 22, 2023
運用期間 2 years
タイプ internet

技術仕様

分類 Payload
質量 730.00 kg
乾燥質量 700.00 kg
総質量 730.00 kg
長さ 0.30 m
直径 4.10 m
スパン 29.00 m
形状 Box + pan
製造者 SPXS
バスタイプ Starlink V2M
フェーズステータス In Orbit
所有者/国 SPXS/US

大規模コンステレーション

Loading constellations...